Date String (YYYY-MM-DD hh:mm:ss) UTC,Instrument flags,Ambient pressure (hPa),Sample flow (lpm),Bypass flow (lpm),Sample temperature (°C),Ambient temperature (°C),ASC tube jacket temperature (°C),LED temperature (°C),Box temperature (°C),Sample RH (%),Span deviation,Mass concentration (μg/m³),Mass concentration (μg/m³),Mass concentration (μg/m³)
DateTimeUTC,F1_M11,P_M11,Q1_M11,Q2_M11,T1_M11,T2_M11,T3_M11,T4_M11,T5_M11,U1_M11,ZSPAN_M11,X0_M11,X2_M11,X1_M11
2022-11-24 19:00:00,,0835.6,5.00,0.00,22.3,21.5,00.0,31.1,24.3,14.0,0000.0,0003.31,0001.24,0001.15
2022-11-24 19:01:00,,0835.6,5.00,0.00,22.4,21.5,00.0,31.1,24.3,13.6,0000.0,0003.34,0001.25,0001.15
2022-11-24 19:02:00,,0835.6,5.00,0.00,22.4,21.5,00.0,31.1,24.3,13.5,0000.0,0003.38,0001.26,0001.15
2022-11-24 19:03:00,,0835.5,4.99,0.00,22.4,21.6,00.0,31.2,24.3,13.4,0000.0,0003.44,0001.29,0001.18
2022-11-24 19:04:00,,0835.5,5.00,0.00,22.5,21.6,00.0,31.2,24.4,13.4,0000.0,0003.51,0001.32,0001.19
2022-11-24 19:05:00,,0835.5,5.00,0.00,22.5,21.6,00.0,31.2,24.4,13.6,0000.0,0003.58,0001.35,0001.20
2022-11-24 19:06:00,,0835.5,5.00,0.00,22.5,21.6,00.0,31.2,24.4,13.7,0000.0,0003.60,0001.35,0001.20
2022-11-24 19:07:00,,0835.5,4.99,0.00,22.5,21.6,00.0,31.2,24.4,13.1,0000.0,0004.64,0001.34,0001.19
2022-11-24 19:08:00,,0835.5,5.00,0.00,22.5,21.6,00.0,31.3,24.4,13.2,0000.0,0004.87,0001.35,0001.19
2022-11-24 19:09:00,,0835.5,5.01,0.00,22.5,21.6,00.0,31.3,24.4,13.4,0000.0,0004.80,0001.33,0001.18
2022-11-24 19:10:00,,0835.5,5.00,0.00,22.6,21.7,00.0,31.3,24.5,13.6,0000.0,0003.68,0001.32,0001.18
2022-11-24 19:11:00,,0835.5,4.99,0.00,22.6,21.7,00.0,31.3,24.5,13.5,0000.0,0002.99,0001.33,0001.18
2022-11-24 19:12:00,,0835.5,5.00,0.00,22.6,21.7,00.0,31.4,24.5,13.4,0000.0,0002.99,0001.34,0001.18
2022-11-24 19:13:00,,0835.5,4.99,0.00,22.6,21.7,00.0,31.4,24.5,13.3,0000.0,0002.96,0001.32,0001.17
2022-11-24 19:14:00,,0835.5,5.00,0.00,22.7,21.8,00.0,31.4,24.5,13.0,0000.0,0002.88,0001.28,0001.14
2022-11-24 19:15:00,,0835.5,5.00,0.00,22.7,21.8,00.0,31.4,24.6,12.8,0000.0,0002.77,0001.22,0001.11
2022-11-24 19:16:00,,0835.4,5.01,0.00,22.7,21.8,00.0,31.4,24.6,13.2,0000.0,0002.68,0001.17,0001.08
2022-11-24 19:17:00,,0835.4,5.01,0.00,22.7,21.9,00.0,31.5,24.6,13.1,0000.0,0002.61,0001.14,0001.05
2022-11-24 19:18:00,,0835.4,5.00,0.00,22.8,21.9,00.0,31.5,24.6,13.2,0000.0,0002.03,0001.14,0001.04
2022-11-24 19:19:00,,0835.3,5.01,0.00,22.8,21.9,00.0,31.5,24.7,13.4,0000.0,0001.37,0001.14,0001.05
2022-11-24 19:20:00,,0835.3,5.00,0.00,22.8,21.9,00.0,31.5,24.7,13.0,0000.0,0001.37,0001.15,0001.05
2022-11-24 19:21:00,,0835.3,5.00,0.00,22.8,21.9,00.0,31.5,24.7,12.9,0000.0,0001.36,0001.15,0001.05
2022-11-24 19:22:00,,0835.4,5.00,0.00,22.8,21.9,00.0,31.6,24.7,12.9,0000.0,0001.38,0001.15,0001.04
2022-11-24 19:23:00,,0835.4,5.00,0.00,22.8,21.9,00.0,31.6,24.7,12.9,0000.0,0001.42,0001.16,0001.04
2022-11-24 19:24:00,,0835.4,5.00,0.00,22.9,22.0,00.0,31.6,24.8,12.9,0000.0,0001.51,0001.16,0001.04
2022-11-24 19:25:00,,0835.4,5.00,0.00,22.9,22.0,00.0,31.6,24.8,13.0,0000.0,0001.76,0001.20,0001.05
2022-11-24 19:26:00,,0835.4,5.01,0.00,22.9,22.0,00.0,31.7,24.8,13.1,0000.0,0001.81,0001.21,0001.05
2022-11-24 19:27:00,,0835.4,5.00,0.00,22.9,22.1,00.0,31.7,24.8,12.8,0000.0,0001.81,0001.21,0001.05
2022-11-24 19:28:00,,0835.4,4.99,0.00,23.0,22.1,00.0,31.7,24.9,12.5,0000.0,0001.81,0001.20,0001.05
2022-11-24 19:29:00,,0835.4,4.99,0.00,23.0,22.1,00.0,31.7,24.9,12.5,0000.0,0001.78,0001.19,0001.05
2022-11-24 19:30:00,,0835.4,5.01,0.00,23.0,22.1,00.0,31.7,24.9,13.0,0000.0,0001.71,0001.16,0001.03
2022-11-24 19:31:00,,0835.4,5.00,0.00,23.0,22.2,00.0,31.8,24.9,13.3,0000.0,0001.66,0001.14,0001.02
2022-11-24 19:32:00,,0835.4,5.00,0.00,23.1,22.2,00.0,31.8,24.9,12.9,0000.0,0001.66,0001.13,0001.02
2022-11-24 19:33:00,,0835.3,5.00,0.00,23.1,22.2,00.0,31.8,24.9,13.0,0000.0,0001.74,0001.14,0001.03
2022-11-24 19:34:00,,0835.4,5.01,0.00,23.1,22.2,00.0,31.8,25.0,13.0,0000.0,0001.62,0001.09,0001.02
2022-11-24 19:35:00,,0835.3,5.00,0.00,23.1,22.2,00.0,31.9,25.0,12.5,0000.0,0001.65,0001.07,0001.00
2022-11-24 19:36:00,,0835.4,5.00,0.00,23.1,22.2,00.0,31.9,25.0,12.4,0000.0,0001.40,0001.03,0000.98
2022-11-24 19:37:00,,0835.4,5.00,0.00,23.2,22.3,00.0,31.9,25.1,12.8,0000.0,0001.51,0001.01,0000.97
2022-11-24 19:38:00,,0835.4,4.99,0.00,23.2,22.3,00.0,31.9,25.1,12.5,0000.0,0002.61,0001.03,0000.98
2022-11-24 19:39:00,,0835.4,5.01,0.00,23.2,22.3,00.0,31.9,25.0,12.4,0000.0,0002.63,0001.04,0000.98
2022-11-24 19:40:00,,0835.4,5.01,0.00,23.2,22.3,00.0,31.9,25.1,12.3,0000.0,0002.65,0001.06,0000.99
2022-11-24 19:41:00,,0835.3,4.99,0.00,23.2,22.3,00.0,32.0,25.1,12.6,0000.0,0002.69,0001.08,0001.00
2022-11-24 19:42:00,,0835.3,4.99,0.00,23.3,22.4,00.0,32.0,25.1,12.6,0000.0,0002.71,0001.08,0001.01
2022-11-24 19:43:00,,0835.4,5.00,0.00,23.3,22.4,00.0,32.0,25.1,12.6,0000.0,0002.73,0001.09,0001.01
2022-11-24 19:44:00,,0835.3,5.00,0.00,23.3,22.4,00.0,32.0,25.2,12.5,0000.0,0002.65,0001.09,0001.01
2022-11-24 19:45:00,,0835.3,5.00,0.00,23.3,22.5,00.0,32.1,25.2,12.3,0000.0,0002.65,0001.09,0001.01
2022-11-24 19:46:00,,0835.3,5.02,0.00,23.3,22.5,00.0,32.1,25.2,12.3,0000.0,0002.59,0001.10,0001.03
2022-11-24 19:47:00,,0835.3,5.00,0.00,23.4,22.5,00.0,32.1,25.3,12.8,0000.0,0002.63,0001.15,0001.05
2022-11-24 19:48:00,,0835.2,5.01,0.00,23.4,22.5,00.0,32.1,25.3,12.8,0000.0,0002.48,0001.18,0001.07
2022-11-24 19:49:00,,0835.3,5.00,0.00,23.4,22.5,00.0,32.1,25.3,12.7,0000.0,0001.37,0001.17,0001.07
2022-11-24 19:50:00,,0835.2,5.00,0.00,23.4,22.5,00.0,32.2,25.3,12.5,0000.0,0001.35,0001.17,0001.08
2022-11-24 19:51:00,,0835.3,4.98,0.00,23.4,22.5,00.0,32.2,25.3,12.3,0000.0,0001.35,0001.17,0001.08
2022-11-24 19:52:00,,0835.3,5.00,0.00,23.5,22.5,00.0,32.2,25.4,12.4,0000.0,0001.35,0001.16,0001.07
2022-11-24 19:53:00,,0835.2,5.01,0.00,23.5,22.5,00.0,32.2,25.4,12.5,0000.0,0001.51,0001.19,0001.08
2022-11-24 19:54:00,,0835.2,5.00,0.00,23.5,22.5,00.0,32.2,25.4,12.4,0000.0,0001.52,0001.20,0001.10
2022-11-24 19:55:00,,0835.2,4.98,0.00,23.5,22.5,00.0,32.2,25.3,12.3,0000.0,0001.51,0001.20,0001.10
2022-11-24 19:56:00,,0835.2,5.00,0.00,23.5,22.5,00.0,32.3,25.3,12.2,0000.0,0001.52,0001.20,0001.10
2022-11-24 19:57:00,,0835.2,5.01,0.00,23.5,22.5,00.0,32.3,25.4,12.2,0000.0,0001.52,0001.19,0001.09
2022-11-24 19:58:00,,0835.2,5.00,0.00,23.5,22.5,00.0,32.3,25.4,12.0,0000.0,0001.46,0001.16,0001.08
2022-11-24 19:59:00,,0835.2,5.00,0.00,23.5,22.6,00.0,32.3,25.4,12.1,0000.0,0001.41,0001.11,0001.05
